M0CJS Weather Reports


Display with metric or nautical units.
time (UTC)temp
F
wind
direction
speed
MPH
gust
MPH
rain 1hr
in
rain 24hr
in
rain mn
in
humidity
%
barometer
mb
20260906032015 56 203 5.0 9.0 0.00 0.00 0.00 85 1024.7
20260906031016 56 180 1.0 3.0 0.00 0.00 0.00 86 1024.7
20260906030016 56 158 2.0 6.0 0.00 0.00 0.00 85 1024.9
20260906025015 56 180 2.0 4.0 0.00 0.00 0.00 85 1025.0
20260906024035 56 158 1.0 5.0 0.00 0.00 0.00 85 1025.0
20260906023015 56 158 1.0 5.0 0.00 0.00 0.00 84 1025.1
20260906022016 56 158 1.0 4.0 0.00 0.00 0.00 84 1025.2
20260906021015 56 158 1.0 3.0 0.00 0.00 0.00 84 1025.2
20260906020015 57 158 1.0 2.0 0.00 0.00 0.00 84 1025.2
20260906015015 57 158 1.0 3.0 0.00 0.00 0.00 84 1025.4
20260906014015 57 158 1.0 3.0 0.00 0.00 0.00 83 1025.3
20260906013015 57 0.0 1.0 0.00 0.00 0.00 83 1025.6
20260906012055 57 0.0 2.0 0.00 0.00 0.00 84 1025.5
20260906011015 57 158 1.0 3.0 0.00 0.00 0.00 84 1025.7
20260906010015 57 0.0 2.0 0.00 0.00 0.00 83 1025.9
20260906005015 57 0.0 2.0 0.00 0.00 0.00 83 1026.2
20260906004015 57 180 2.0 4.0 0.00 0.00 0.00 83 1026.2
20260906003015 57 180 1.0 3.0 0.00 0.00 0.00 83 1026.4
20260906002015 58 0.0 1.0 0.00 0.00 0.00 82 1026.4
20260906001017 58 0.0 0.0 0.00 0.00 0.00 82 1026.6
20260906000017 58 0.0 0.0 0.00 0.00 0.00 82 1026.5
20260905235057 57 0.0 0.0 0.00 0.00 0.00 83 1026.4
20260905234037 57 0.0 1.0 0.00 0.00 0.00 82 1026.3
20260905233017 57 0.0 1.0 0.00 0.00 0.00 82 1026.5
20260905232017 57 0.0 1.0 0.00 0.00 0.00 83 1026.6
20260905231037 57 0.0 0.0 0.00 0.00 0.00 83 1026.5
20260905230017 58 0.0 1.0 0.00 0.00 0.00 81 1026.4
20260905225015 57 0.0 1.0 0.00 0.00 0.00 82 1026.5
20260905224015 58 225 1.0 2.0 0.00 0.00 0.00 82 1026.5
20260905223015 58 203 1.0 2.0 0.00 0.00 0.00 82 1026.5
20260905222015 58 225 1.0 5.0 0.00 0.00 0.00 81 1026.5
20260905221037 58 0.0 0.0 0.00 0.00 0.00 81 1026.6
20260905220017 58 0.0 0.0 0.00 0.00 0.00 81 1026.4
20260905215017 59 338 1.0 2.0 0.00 0.00 0.00 79 1026.3
20260905214017 58 23 1.0 2.0 0.00 0.00 0.00 80 1026.5
20260905213017 59 0 1.0 2.0 0.00 0.00 0.00 80 1026.5
20260905212017 59 23 1.0 3.0 0.00 0.00 0.00 79 1026.6
20260905211017 59 0.0 2.0 0.00 0.00 0.00 80 1026.6
20260905210037 59 315 1.0 2.0 0.00 0.00 0.00 79 1026.5
20260905205017 60 0.0 1.0 0.00 0.00 0.00 77 1026.3
20260905204017 61 203 2.0 4.0 0.00 0.00 0.00 74 1026.2
20260905203017 61 203 2.0 5.0 0.00 0.00 0.00 73 1026.1
20260905202017 61 225 3.0 4.0 0.00 0.00 0.00 74 1026.2
20260905201017 61 203 2.0 4.0 0.00 0.00 0.00 74 1026.0
20260905200037 61 0.0 1.0 0.00 0.00 0.00 74 1026.0
20260905195017 62 225 3.0 4.0 0.00 0.00 0.00 71 1025.9
20260905194017 63 225 3.0 7.0 0.00 0.00 0.00 70 1026.2
20260905193017 63 225 3.0 4.0 0.00 0.00 0.00 70 1026.0
20260905192017 63 203 3.0 6.0 0.00 0.00 0.00 70 1026.0
20260905191057 64 225 2.0 5.0 0.00 0.00 0.00 69 1025.9
20260905190017 64 203 2.0 4.0 0.00 0.00 0.00 69 1025.9
20260905185017 64 225 3.0 5.0 0.00 0.00 0.00 69 1025.7
20260905184017 64 203 3.0 6.0 0.00 0.00 0.00 69 1025.8
20260905183017 64 225 2.0 3.0 0.00 0.00 0.00 69 1025.7
20260905182017 65 0.0 3.0 0.00 0.00 0.00 68 1025.6
20260905181017 65 180 1.0 2.0 0.00 0.00 0.00 68 1025.6
20260905180017 65 0.0 2.0 0.00 0.00 0.00 68 1025.6
20260905175016 65 0.0 2.0 0.00 0.00 0.00 70 1025.6
20260905174016 66 293 1.0 3.0 0.00 0.00 0.00 67 1025.6
20260905173016 67 270 2.0 3.0 0.00 0.00 0.00 64 1025.6
20260905172036 67 293 4.0 6.0 0.00 0.00 0.00 63 1025.6
20260905171017 69 248 1.0 4.0 0.00 0.00 0.00 61 1025.3
20260905170037 69 270 2.0 4.0 0.00 0.00 0.00 59 1025.3
20260905165017 68 203 1.0 5.0 0.00 0.00 0.00 62 1025.4
20260905164017 68 225 2.0 4.0 0.00 0.00 0.00 61 1025.4
20260905163017 68 293 2.0 6.0 0.00 0.00 0.00 61 1025.5
20260905162017 68 315 3.0 7.0 0.00 0.00 0.00 62 1025.6
20260905161037 68 293 2.0 4.0 0.00 0.00 0.00 61 1025.6
20260905160016 69 270 4.0 9.0 0.00 0.00 0.00 59 1025.7
20260905155016 69 293 3.0 7.0 0.00 0.00 0.00 60 1025.5
20260905154016 68 293 3.0 5.0 0.00 0.00 0.00 62 1025.6
20260905153016 68 270 3.0 5.0 0.00 0.00 0.00 59 1025.7
20260905152016 68 293 3.0 6.0 0.00 0.00 0.00 61 1025.7
20260905151016 69 293 4.0 8.0 0.00 0.00 0.00 59 1025.8
20260905150036 70 293 2.0 9.0 0.00 0.00 0.00 59 1025.8
20260905145016 69 293 5.0 10.0 0.00 0.00 0.00 60 1025.7
20260905144016 68 293 3.0 7.0 0.00 0.00 0.00 60 1025.7
20260905143016 70 225 3.0 10.0 0.00 0.00 0.00 58 1025.7
20260905142016 68 0 4.0 9.0 0.00 0.00 0.00 60 1025.6
20260905141036 68 293 6.0 11.0 0.00 0.00 0.00 60 1025.6
20260905140016 67 315 4.0 10.0 0.00 0.00 0.00 60 1025.6
20260905135016 68 293 5.0 9.0 0.00 0.00 0.00 62 1025.6
20260905134016 68 315 5.0 10.0 0.00 0.00 0.00 61 1025.7
20260905133016 68 293 8.0 13.0 0.00 0.00 0.00 61 1025.6
20260905132016 68 293 5.0 11.0 0.00 0.00 0.00 62 1025.6
20260905131016 69 293 4.0 8.0 0.00 0.00 0.00 59 1025.6
20260905130016 68 270 3.0 8.0 0.00 0.00 0.00 61 1025.6
20260905125016 69 293 5.0 9.0 0.00 0.00 0.00 61 1025.6
20260905124016 71 293 5.0 13.0 0.00 0.00 0.00 56 1025.4
20260905123016 70 270 5.0 10.0 0.00 0.00 0.00 57 1025.4
20260905122016 69 293 6.0 11.0 0.00 0.00 0.00 59 1025.4
20260905121016 67 270 5.0 10.0 0.00 0.00 0.00 63 1025.4
20260905120016 66 293 4.0 7.0 0.00 0.00 0.00 64 1025.4
20260905115016 68 293 5.0 9.0 0.00 0.00 0.00 62 1025.3
20260905114016 70 293 6.0 11.0 0.00 0.00 0.00 60 1025.2
20260905113016 69 0 6.0 11.0 0.00 0.00 0.00 63 1025.2
20260905112016 66 315 6.0 10.0 0.00 0.00 0.00 66 1025.3
20260905111036 69 0 6.0 13.0 0.00 0.00 0.00 60 1025.4
20260905110016 69 293 4.0 8.0 0.00 0.00 0.00 63 1025.4
20260905105036 68 315 5.0 13.0 0.00 0.00 0.00 62 1025.2
20260905104016 69 293 5.0 11.0 0.00 0.00 0.00 61 1025.2
20260905103016 66 293 5.0 9.0 0.00 0.00 0.00 66 1025.2
20260905102015 66 0 7.0 14.0 0.00 0.00 0.00 64 1025.3
20260905101016 68 293 6.0 12.0 0.00 0.00 0.00 63 1025.2
20260905100015 68 293 6.0 12.0 0.00 0.00 0.00 65 1025.1
20260905095015 66 293 6.0 11.0 0.00 0.00 0.00 67 1025.0
20260905094015 66 0 7.0 13.0 0.00 0.00 0.00 67 1024.8
20260905093015 66 293 7.0 13.0 0.00 0.00 0.00 68 1024.7
20260905092015 65 0 8.0 14.0 0.00 0.00 0.00 68 1024.7
20260905091015 65 0 9.0 13.0 0.00 0.00 0.00 69 1024.4
20260905090015 64 293 8.0 13.0 0.00 0.00 0.00 70 1024.3
20260905085135 64 293 7.0 14.0 0.00 0.00 0.00 71 1024.3
20260905084016 64 293 6.0 12.0 0.00 0.00 0.00 74 1024.1
20260905083016 63 293 9.0 17.0 0.00 0.00 0.00 73 1024.0
20260905082016 62 293 8.0 14.0 0.00 0.00 0.00 74 1023.9
20260905081015 62 293 7.0 12.0 0.00 0.00 0.00 76 1023.9
20260905080015 62 293 5.0 10.0 0.00 0.00 0.00 78 1023.5
20260905075015 61 293 7.0 12.0 0.00 0.00 0.00 78 1023.4
20260905074015 60 270 5.0 10.0 0.00 0.00 0.00 80 1023.4
20260905073035 60 270 5.0 10.0 0.00 0.00 0.00 81 1023.3
20260905072015 59 270 4.0 10.0 0.00 0.00 0.00 82 1023.2
20260905071015 58 270 4.0 10.0 0.00 0.00 0.00 83 1023.1
20260905070015 58 270 4.0 8.0 0.00 0.06 0.00 84 1022.9
20260905065015 57 270 2.0 6.0 0.00 0.06 0.00 86 1022.8
20260905064015 56 270 3.0 6.0 0.00 0.06 0.00 88 1022.7
20260905063015 55 270 2.0 4.0 0.00 0.06 0.00 89 1022.6
20260905062015 54 248 2.0 4.0 0.00 0.06 0.00 91 1022.6
20260905061017 53 225 3.0 9.0 0.00 0.06 0.00 92 1022.6
20260905060017 53 203 5.0 8.0 0.00 0.24 0.00 93 1022.4
20260905055037 53 203 5.0 7.0 0.00 0.24 0.00 92 1022.3
20260905054017 52 203 4.0 6.0 0.00 0.24 0.00 93 1022.2
20260905053017 53 203 4.0 6.0 0.00 0.24 0.00 92 1022.1
20260905052037 53 203 4.0 7.0 0.00 0.24 0.00 93 1022.2
20260905051037 53 225 4.0 6.0 0.00 0.24 0.00 93 1022.0
20260905050017 53 203 4.0 8.0 0.00 0.74 0.00 92 1021.9
20260905045017 53 225 2.0 4.0 0.00 0.74 0.00 93 1021.9
20260905044017 53 203 4.0 8.0 0.00 0.74 0.00 93 1021.6
20260905043017 53 225 2.0 8.0 0.00 0.74 0.00 93 1021.6
20260905042017 53 225 4.0 8.0 0.00 0.74 0.00 92 1021.5
20260905041017 54 225 3.0 6.0 0.00 0.74 0.00 92 1021.4
20260905040017 54 225 3.0 7.0 0.00 0.80 0.00 92 1021.2
20260905035017 54 203 2.0 5.0 0.00 0.80 0.00 92 1021.0
20260905034017 54 248 2.0 7.0 0.00 0.80 0.00 91 1020.9
20260905033037 54 270 2.0 6.0 0.00 0.80 0.00 92 1020.7